Regional Weather Roundup
Issued by NWS Tiyan, Guam

Home | Current Version | Previous Version | Text Only | Print | Product List | Glossary On
Versions: 1 2 3 4 5 6 7 8 9 10 11 12 13 14 15 16 17 18 19 20 21 22 23 24 25 26 27 28 29 30 31 32 33 34 35 36 37 38 39 40 41 42 43 44 45 46 47 48 49 50
000
ASGM40 PGUM 150810
RWRGUM
WEATHER ROUNDUP FOR THE MARIANAS
NATIONAL WEATHER SERVICE TIYAN GU
600 PM CHST FRI NOV 15 2019

GUZ001>004-150900-
MARIANA ISLANDS-

CITY           SKY/WX    TMP DP  RH WIND       PRES   REMARKS
GUAM AIRPORT   PTCLDY    82  77  83 SE6       29.85R HX  91
ANDERSEN AFB   PTCLDY    81  77  89 E6        29.86R
ROTA AIRPORT   MOCLDY    79  75  89 SE7       29.82S
TINIAN AP      MOCLDY    82  77  83 SE6       29.83R HX  91
SAIPAN AP      PTCLDY    75  75 100 E14       29.84S

$$




USA.gov is the U.S. government's official web portal to all federal, state and local government web resources and services.